[Date Prev][Date Next][Thread Prev][Thread Next][Date Index][Thread Index]

[jamsat-news:1531] jas2info #233



========================   最新情報   ==============================

        Last updated :Sat.07JUL2001  16:30(JST)   #233
        
====================================================================
   
  1)アマチュア通信衛星情報、FOシリーズの軌道要素、テレメトリ、QSOの
   状況等をまとめてみました.
   
   FO−29の2001年7月7日(土)の9:35(JST)のパスでは
  JARLのホームページのとうりアナログ運用でした。 今週の観測した
  テレメトリーと最終の分析結果を掲載しておきます.

AS24134C1   07JUL2001
9:44-9:46(JST)
FREQ.435.788MHz

HI HI AE C7 88 55 00 D4 95 78 09 59 45 8B 85 63 99 97 B0 78 A2 A3 A6 A2 A1 
HI HI AE C7 88 55 00 D4 95 78 09 59 46 9D 80 53 99 96 B0 63 A1 A3 A6 A1 A1 
HI HI AE C7 88 55 00 D4 95 78 09 59 49 9D 75 63 99 97 B0 8C A1 A3 A6 A1 A1 

AS24126C1  06JUL2001
19:55-20:13(JST)
FREQ.435.803-.787MHz

HI HI AE C7 88 55 00 D4 84 CE 09 6C 8O 
HI HI AE C7 88 55 00 D4 84 CE 09 6C 87 3E 64 63 99 97 B0 92 A5 9D 9F A5 A2 
HI HI AE C7 88 55 00 D4 84 CE 09 6C 8F 4B 68 63 99 97 B0 97 A5 9D 9F A5 A2 
HI HI AE C7 88 55 00 D4 84 CE 09 6C 95 5A 6A 63 99 97 B0 70 A5 9D 9F A5 A2 
HI HI AE C7 88 55 00 D4 84 CE 09 6C 99 6A 6A 63 99 97 B0 65 A5 9D 9F A5 A2  
HI HI AE CZ 88 55 00 D4 84 CE 09 6C 9A 78 6A 63 9A 97 B0 93 A5 9D 9F A5 A2 
HI HI AE C7 88 55 00 D4 84 CE 09 6C 99 85 68 63 99 97 B0 A4 A5 9D 9F A5 A2 
HI HI AE C7 88 55 00 D4 84 CE 09 6C 94 8F 63 63 9A 97 B0 7D A5 9D 9F A5 A2  
HI HI AE C7 88 55 00 D4 84 CE 09 6C 65 8A 6A 63 9A 96 B0 64 A5 9C 9F A5 A2 
HI HI AE C7 88 55 00 D4 84 CE 09 6C 59 7F 6D 63 9A 97 B0 83 A5 9C 9F A5 A2 
HI HI AE C7 88 55 00 D4 84 CE 09 6C 51 73 70 63 9A 97 B0 80 A5 9C 9F A5 A2 
HI HI AE C7 88 55 00 D4 84 CE 09 6C 4A 68 79 63 9A 98 B0 78 A5 9C 9U A5 A2 
HI HI AE C7 88 55 00 D4 84 CE 09 6C 49 5D 71 63 9A 97 B0 6C A4 9B 9F A5 A2 
HI HI AE C7 88 55 00 D4 84 CE 09 6C 46 54 6F 63 9A 96 B0 78 A4 9C 9F A5 A2 
HI HI AE C7 88 55 00 D4 84 CE 09 6C 48 4F 6B 63 9A 98 B0 95 A4 9C 9F A5 A2 
HI HI AE C7 8  55 00 D4 84 CE 09 6C 4C 4D 64 63 9A 98 B0 7D A4 9C 9F A4 A2 
HI HI AE C7 88 55 00 D4 84 CE 09 6C 4F 51 68 63 9A 98 B0 75 A4 9C 9F A4 A2 
HI HI AE C7 88 55 00 D4 84 CE 09 6C 4F 56 66 63 9A 98 B0 69 A4 9C 9F A4 A2 
HI HI AE C7 88 55 00 D4 84 CE 09 6C 61 5E 5C 63 9A 98 B0 B7 A4 9C 9E A4 A2 
HI HI AE C7 88 55 00 D4 84 CE 09 6C 68 6A 5F 63 9A 98 B0 7F A4 9C 9E A4 A2 

AS24085C1    30JUL2001
19:07-19:24(JST)
Freq.435.801-.790MHz

HI HI AE C7 88 55 00 D4 A0 18 09 6F 96 66 67 63 99 97 B0 7B 9E A0 A6 A3 A3 
HI HI AE C7 88 55 00 D4 A0 18 09 6F 96 64 67 63 99 97 B0 7A 9E A0 A6 A3 A3 
HI HI AE C7 88 55 00 D4 A0 18 09 6F 96 63 67 63 99 97 B0 8C 9E A0 A6 A3 A3 
HI HI AE C7 88 55 00 D4 A0 18 09 6F 96 62 67 63 99 97 B0 84 9E A0 A6 A3 A3
HI HI AE C7 88 55 00 D4 A0 18 09 6F 95 61 66 63 99 97 B0 78 9E A0 A6 A3 A3 
HI HI AE C7 88 55 00 D4 A0 18 09 6F 94 61 65 63 99 97 B0 60 9D A0 A6 A3 A3 
HI HI AE C7 88 55 00 S4 A0 18 09 6F 93 61 63 63 99 97 B0 6E 9D 9F A6 A3 A3 
HI HI AE C7 88 55 00 D4 A0 18 09 6F 92 61 61 63 99 97 B0 84 9D A0 A7 A3 A3 
HI HI AE C7 88 55 00 D4 A0 18 09 6F 90 60 61 63 99 97 B0 72 9D A0 A6 A3 A3 
HI HI AE C7 88 55 00 D4 A0 18 09 6F 8F 61 61 63 99 97 B0 75 9D A0 A7 A3 A3 
HI HI AE C7 88 55 00 D4 A0 18 09 6F 8E 61 60 63 9A 97 B0 84 9D 9F A7 A3 A2 
HI HI AE C7 88 55 00 D4 A0 18 09 6F 8C 61 5E 63 8A 97 B0 67 9D 9F A7 A3 A2 
HI HI AE C7 88 55 00 D4 A0 18 09 6F 8B 62 5D 63 99 98 B0 5D 9D 9F A7 A3 A3 
HI HI AE C7 88 55 00 D4 A0 18 09 6F 89 62 5B 64 99 98 B0 99 9D 9F A7 A3 A3 
HI HI AE C7 88 55 00 D4 A0 18 09 6F 75 6F 88 63 99 63 9A 98 9D 9F A7 A7 A3 
HI HI AE C7 88 55 00 D4 A0 18 09 6F 86 63 56 63 99 97 B0 99 90 9F A7 A3 A2 
HI HI AE C7 88 55 00 D4 A0 18 09 6F 84 64 56 63 9A 97 B0 78 9D 9F A7 A3 A2 
HI HI AE C7 88 55 00 D4 A0 18 09 6F 82 65 56 63 9A 98 B0 65 90 9F A7 A3 A2 
HI HI AE CZ 88 55 00 D4 A0 18 09 6F    66 54 63 9A 97 B0 7B 9D 9F A7 A3 A2 
HI HI AE C7 88 55 00 D4 A0 18 09 6F 7E 67 51 63 9A 98 B0 66 9D 9F A7 A3 A2 
HI HI AE C7 88 55 00 D4 A0 18 08 6F 7D 68 52 63 9A 98 B0 77 90 9F A7 A3 A2 

AS24072C   02JUL2001
20:20-20:22(JST)
Freq,435.803-.787MHz

HI HI AE C7 88 55 00 D4 1D 6E 09 1F 71 92 66 63 99 97 B0 51 A4 9E A4 A8 A5 
HI HI AE C7 88 55 00 D4 1D 6E 09 1F 75 8E 64 63 9A 96 B0 75 A4 9E A4 A8 A5 
HI HI AE C7 88 55 00 D4 1D 6E 09 1F 79 8A 62 63 99 97 B0 85 A4 9E A4 A7 A4 
HI HI AE C7 88 55 00 D4 1D 6E 09 1F 7C 86 61 63 99 97 B0 8F A4 9E A4 A7 A5 
HI HI AE C7 88 55 00 D4 1D 6E 09 1F 7F 81 5F 63 99 97 B0 7A A4 9E A4 A7 A5 
HI HI AE C7 88 55 00 D4 1D 6E 09 1F 82 7D 5D 63 99 97 B0 6E A3 9E A4 A7 A5 
HI HI AE C7 88 55 00 D4 1D 6E 09 1F 84 78 5C 63 99 97 B0 85 A3 9E A4 A7 A5 
HI HI AE C7 88 55 00 D4 1D 6E 09 1F 86    5A 63 99 97 B0 7A A3 9E A4 A7 A5 
HI HI AE C7 88 55 00 D4 1D 6E 09 IF 87 70 5B 63 99 97 B0 8E A3 9F A4 A7 A5 
HI HI AE C7 88 55 00 D4 1D 6E 09 1F 88 6D 5A 63 99 97 B0 5F A3 9F A5 A7 A5 
HI HI AE C7 88 55 00 D4 1D 6E 09 1F 89 6A 58 63 9A 97 B0 82 A2 9F A5 A7 A5 
HI HI AE C7 88 55 00 D4 1D 6E 09 1F 8A 67 57 63 99 97 B0 68 A2 9F A5 A7 A5 
HI HI AE CT 88 55 00 D5 1D 6E 09 1F 8A 65 58 63 9A 97 B0 8B A2 9F A5 A7 A4 
HI HI AE C7 88 55 00 D4 1D 6E 09 1F 8A 63 58 63 9A 97 B0 61 A2 9F R5 A7 A4 
HI HI AE C7 88 55 00 D4 1D 6E 09 1F 8B 61 57 63 9A 97 B0 89 A2 9F A5 A7 A4 
HI HI AE C7 88 55 00 D4 1D 6E 09 1F 8A 50 56 63 9A 97 B0 83 A2 9F A5 A6 A4 
HI HI AE C7 88 55 00 D4 1D 6E 09 1F 8A 60 56 63 99 97 B0 76 A2 9F A5 A6 A4 
HI HI AE C7 88 55 00 D4 1D 6E 09 1F 8A 60 57 63 99 97 B0 76 A2 9F A5 A6 A4 
HI HI AE C7 88 55 00 D5 2D 6E 09 1F 89 5F 57 63 9A 98 B0 6C A2 9F A5 A6 A4
HI HI AE C7 88 55 00 D4 2D 6E 09 1F 89 5F 57 63 9A 98 B0 65 A1 9F A6 A6 A4 
HI HI AE C7 88 55 00 D4 1D 6E 09 1F 88 60 57 63 9A 98 AF 6E A1 A0 A6 A6 A4 
HI HI AE C7 88 55 00 D4 1D 6E 09 1F 88 60 57 63 9A 98 B9 84 A1 A0 A6 A6 A4 
HI HI AE C7 88 55 00 D5 1D 6E 09 1F 87 60 56 63 99 98 B0 8A A1 A0 A6 A6 A4 
HI HI AE C7 88 55 00 D4 1D 6E 09 1F 86 60 55 63 9A 98 B0 77 A1 A0 A6 A6 A4 
HI HI AE C7 88 55 00 D4 1D 6E 09 1F 85 60 54 63 9A 98 B0 87 A1 A0 A6 A6 A4 
HI HI AE C7 88 55 00 D4 1D 6E 09 1F 83 60 53 63 9A 98 B0 6E A1 A0 A6 A6 A4 
HI HI AE C7 88 55 00 D4 1D 6E 09 1F 82 60 53 63 9A 98 B0 B3 A1 A9A 5 A6 A4 
HI HI AE C7 88 55 00 D4 1D 6E 09 1F 80 5F 5E 

 ------------------------ FO-29の軌道要素 ------------------------------        
 
  ■ 軌道要素1:「jamsat−keps:1016」より         
          SB KEPS @ AMSAT  $ORB01186.N
          2Line Orbital Elements 01186.AMSAT

HR AMSAT ORBITAL ELEMENTS FOR AMATEUR SATELLITES IN NASA FORMAT
FROM WA5QGD FORT WORTH,TX July 5, 2001
SEND SUBSCRIBE/UNSUBSCRIBE TO majordomo@amsat.org ONLY
BID: ORB01186.N

 DECODE 2-LINE ELSETS WITH THE FOLLOWING KEY:
 1 AAAAAU 00  0  0 BBBBB.BBBBBBBB  .CCCCCCCC  00000-0  00000-0 0  DDDZ
 2 AAAAA EEE.EEEE FFF.FFFF GGGGGGG HHH.HHHH III.IIII JJ.JJJJJJJJKKKKKZ
 KEY: A-CATALOGNUM B-EPOCHTIME C-DECAY D-ELSETNUM E-INCLINATION F-RAAN
 G-ECCENTRICITY H-ARGPERIGEE I-MNANOM J-MNMOTION K-ORBITNUM Z-CHECKSUM

FO-29
1 24278U 96046B   01183.21347750 -.00000037  00000-0  12030-5 0  4256
2 24278  98.5374  46.3892 0350819 323.0637  34.6797 13.52775902240679

 ■ 軌道要素2:「jamsat−keps:1017」より
        SB KEPS @ AMSAT  $ORB01186.O
Orbital Elements  01186.OSCAR

HR AMSAT ORBITAL ELEMENTS FOR OSCAR SATELLITES
FROM WA5QGD FORT WORTH,TX July 5, 2001
SEND SUBSCRIBE/UNSUBSCRIBE TO majordomo@amsat.org ONLY
BID: ORB01186.O
TO ALL RADIO AMATEURS BT
 
Satellite: FO-29
Catalog number: 24278
Epoch time:      01183.21347750
Element set:     425
Inclination:       98.5374 deg
RA of node:        46.3892 deg
Eccentricity:    0.0350819
Arg of perigee:   323.0637 deg
Mean anomaly:      34.6797 deg
Mean motion:   13.52775902 rev/day
Decay rate:       -3.7e-07 rev/day^2
Epoch rev:           24067
Checksum:              323
-------------------  FO-29(JAS-2)のテレメトリに関する情報  ---------------------- 
 
2)上記7月7日(土)のテレメトリの最終行を分析しておきます.

AS24134C1   07JUL2001
9:44-9:46(JST)
FREQ.435.788MHz

HI HI AE C7 88 55 00 D4 95 78 09 59 49 9D 75 63 99 97 B0 8C A1 A3 A6 A1 A1 

テレメトリ   内 容     換算算値 単 位  
3C	磁気センサーZ軸=   35784.3	[nT]
3D	磁気センサX軸	=  76960.8	[nT]
4A	太陽電池発生電流=  1147.1	[mA]
4B	B充放電電流	=     -59.6	[mA]
4C	B端子電圧	=	16.5	[V]
4D	B中間端子電圧	=	 7.3	[V]
5A	バス電圧	=	17.3	[V]
5B	JTA送信電力	=   811.9	[mW]
5C 	構体温度1	=	19.4	[℃]
5D	構体温度2	=	18.6	[℃]
6A	構体温度3	=	17.4	[℃]
6B	構体温度4	=	19.4	[℃]
6C	Bセル温度	=	19.4	[℃]
   	
 ========================== FO-29(ふじ3号)のQSO情報等 ======================
   
 3)[jamsat-bb:

 ===============================================================================
   4)JARL のホームページに運用予定が記載されていましたのでご紹介します.
       ( http://www.jarl.or.jp/Japanese/3_Fuji/new/uy.htm )

        ■ ふじ3号/FOー29/JAS-2 ■  
   
     *** 運用予定について ***

 7月2日(月) 〜 10月1日(月)アナログ系運用 


  *なお,運用予定は都合により変更することがありますので予めご了承願います。

 照会先 : lab@jarl.or.jp

 最新の情報はテレホンサービス(03−3942−1000)をお聞きください。  
 以後の運用につきましては平成13年10月上旬にお知らせ致します。
    
-----------------------    FO−20(JAS-1b)道要素   -------------------------
  5)
  ■ 軌道要素1 :出典はFO-29「ふじ3号」に同じ.
  
FO-20
1 20480U 90013C   01182.74868313 -.00000009  00000-0  60524-4 0  3231
2 20480  99.0555 248.4439 0539749 276.2760  77.7151 12.83293986533965
 
  ■ 軌道要素2 :出典はFO−29「ふじ3号」に同じ.
               
Satellite: FO-20
Catalog number: 20480
Epoch time:      01182.74868313
Element set:     323
Inclination:       99.0555 deg
RA of node:       248.4439 deg
Eccentricity:    0.0539749
Arg of perigee:   276.2760 deg
Mean anomaly:      77.7151 deg
Mean motion:   12.83293986 rev/day
Decay rate:       -9.0e-08 rev/day^2
Epoch rev:           53396
Checksum:              337
 --------------------------------------------------------------------------------
 
         ■ ふじ2号/FO−20/JAS-1b ■      
            
          「ふじ2号」 現況                                                                                  
             
   JAS-1b(ふじ2号)のCWテレメトリ信号に,1997年10月12日12時(JST)の
 日本上空通過時,3桁の数字が繰り返されるはずが3個の長音の繰り返しとなっているという
 異常が発見されました。この不具合は次の通過時からは回復していましたが13日15時20分の
 通過時に再び観測されました。現在はA0の送信が続いています。衛星のアナログ系中継モード
 動作は異常が無く,正常時のテレメトリ内容からは衛星の動作に異常は認められません。従って,
 直ちに衛星のミッションに影響することは無いと予想されますので,当面はアナログ系中継
 モードを継続します。衛星は既に打ち上げてから7年8ヶ月を経ておりますので,今後は監視を
 強化する予定です。アマチュア各位のレポートをお待ちします。
 -------------------------------------------------------------------------------- 
  1997年10月14日 00時35分 確認のテレメトリ音 151 KB (A0) 
  1997年10月14日 11時10分 確認のテレメトリ音 216 KB (異常キーイング) 

  以上 JARLのホ−ムページの http://www.jarl.or.jp/Japanese/3_Fuji/new/fuji.htm

===================== FO-20 ふじ2号 のテレメトリ観測結果 ====================

   5月29日(金)の観測結果では以前観測した単一周波数のドップラー効果で
 周波数がずれていくのみの状態でした。
                                         
   =============   JAS-2 (ふじ3号)と現在までの情報   ===========
  
  A.電話によるふじ3号の運用情報
      社団法人日本アマチュア連盟によるサービス
           TEL .   03− 3942 − 1000
  B.アマチュア無線FAXサービス
      JARLによるふじ3号の軌道情報(オービットカレンダー)
         FAX No.  03− 3233 −0055
  C.WWWブラウザで情報を簡単に見れる人のためにJAS−2
     ふじ3号の衛星としての運用されるまでの名前)の概要、打ち上げ
     までの状況、運用中における状況を説明したホームページを紹介し
     ておきます.
     社団法人日本アマチュア無線連盟(JARL)のホームページ

          http://www.jarl.or.jp/Japanese/3_Fuji/jasmenu.htm
 
     宇宙開発事業団(NASDA)ホームページ 
          http://www.nasda.go.jp/
         打上げ衛星 :地球観測プラットフォーム技術衛星(ADEOS) 
                       アマチュア衛星3号(JAS-2)
          http://spaceboy.nasda.go.jp/note/eisei/j/Eis15h_j.html#Eis15h_01_j
     http://spaceboy.nasda.go.jp/note/eisei/j/Eis15i_j.html        

  D.JAMSATによる軌道情報の活用
        JAMSATのホームページまたはjamsat−kepsの軌道要素より
      衛星の軌道情報を得る.
     JAMSATホームページ
               URL    http://www.jamsat.or.jp
       上記ホームページでは各地で行われるアマチュア通信衛星に関する
      ミューティングのお知らせや世界のアマチュア衛星に関する情報が
      満載されています.
 ========================================================================  
     JAMSATのメンバーのご協力によりJH6MME(高山 秀造)が
    執筆・編集を担当しております.ご指摘の意見、疑問やこのようにしたら
    というアイデアがありましたら小さなことでもかまいませんので気軽に下
    記アドレスまでご連絡ください.jamsat−newsからjas2
    infoへの転載をJH4PHW局坂井さんに担当して頂いております.  
                  E-mail : jh6mme@jamsat.or.jp : jh4phw@jamsat.or.jp
 ===============================   END  ===============================